LA9NKA Weather Reports


time (UTC)temp
F
wind
direction
speed
knots
gust
knots
rain 1hr
in
rain 24hr
in
rain mn
in
humidity
%
barometer
mb
20260503034033 0 323 1.7 4.3 0.00 0.06 0.00 86 1010.7
20260503033032 0 322 1.7 7.0 0.00 0.06 0.00 86 1010.6
20260503032131 0 321 0.9 2.6 0.00 0.06 0.00 86 1010.5
20260503031028 0 338 0.9 2.6 0.00 0.06 0.00 86 1010.4
20260503030027 0 348 0.9 2.6 0.00 0.06 0.00 86 1010.5
20260503025026 0 348 0.9 3.5 0.00 0.06 0.00 86 1010.5
20260503024025 0 355 0.9 3.5 0.00 0.06 0.00 86 1010.5
20260503023051 0 355 0.9 3.5 0.00 0.06 0.00 86 1010.6
20260503022050 0 6 0.9 3.5 0.00 0.06 0.00 86 1010.5
20260503021147 0 333 0.0 2.6 0.00 0.06 0.00 86 1010.5
20260503020044 0 348 0.9 3.5 0.00 0.06 0.00 86 1010.4
20260503015041 0 290 0.9 3.5 0.00 0.06 0.00 86 1010.5
20260503014140 0 333 0.9 2.6 0.00 0.06 0.00 86 1010.5
20260503013209 0 352 0.9 3.5 0.00 0.06 0.00 86 1010.5
20260503012035 0 3 0.9 2.6 0.00 0.06 0.00 86 1010.6
20260503011035 0 350 0.9 3.5 0.00 0.06 0.00 86 1010.7
20260503010034 0 354 0.9 3.5 0.00 0.06 0.00 86 1010.7
20260503005133 0 357 0.9 3.5 0.00 0.06 0.00 86 1010.7
20260503004029 0 357 0.9 4.3 0.00 0.06 0.00 86 1010.8
20260503003055 0 341 0.9 3.5 0.00 0.06 0.00 86 1010.7
20260503002053 0 345 0.9 2.6 0.00 0.06 0.00 86 1010.7
20260503001052 0 346 0.9 2.6 0.00 0.06 0.00 86 1010.8
20260503000051 0 331 0.0 2.6 0.00 0.06 0.00 86 1010.9
20260502235143 0 342 0.9 2.6 0.00 0.06 0.00 86 1011.0
20260502234312 0 8 0.9 2.6 0.00 0.06 0.00 86 1011.0
20260502233039 0 342 0.9 2.6 0.00 0.06 0.00 86 1011.0
20260502232038 0 3 1.7 3.5 0.00 0.06 0.00 86 1011.0
20260502231032 0 23 0.0 2.6 0.00 0.06 0.00 86 1011.0
20260502230029 0 6 0.9 6.1 0.00 0.06 0.00 86 1011.0
20260502225028 0 348 0.9 4.3 0.00 0.06 0.00 86 1011.0
20260502224024 0 344 1.7 3.5 0.00 0.06 0.00 86 1010.9
20260502223024 0 351 1.7 7.0 0.00 0.06 0.00 86 1010.9
20260502222050 0 352 1.7 4.3 0.00 0.06 0.00 86 1010.9
20260502221020 0 330 0.9 4.3 0.00 0.06 0.00 86 1011.0
20260502220049 0 354 1.7 3.5 0.00 0.06 0.00 86 1011.1
20260502215318 0 328 1.7 6.1 0.00 0.06 0.06 86 1011.2
20260502214047 0 345 1.7 4.3 0.00 0.06 0.06 86 1011.2
20260502213046 0 349 0.9 3.5 0.00 0.06 0.06 86 1011.1
20260502212045 0 12 0.9 4.3 0.00 0.06 0.06 86 1011.2
20260502211044 0 22 1.7 3.5 0.00 0.06 0.06 86 1011.1
20260502210044 0 338 1.7 4.3 0.00 0.06 0.06 86 1011.0
20260502205021 0 9 1.7 6.1 0.00 0.06 0.06 86 1011.1
20260502204121 0 354 1.7 4.3 0.00 0.06 0.06 86 1011.1
20260502203020 0 11 1.7 4.3 0.00 0.06 0.06 86 1011.0
20260502202049 0 3 1.7 4.3 0.00 0.06 0.06 86 1010.9
20260502201048 0 348 1.7 7.0 0.00 0.06 0.06 86 1010.9
20260502200047 0 340 1.7 4.3 0.00 0.06 0.06 86 1010.9
20260502195046 0 335 0.9 4.3 0.00 0.06 0.06 86 1010.7
20260502194045 0 340 0.9 3.5 0.00 0.06 0.06 86 1010.7
20260502193044 0 336 1.7 7.0 0.00 0.06 0.06 86 1010.7
20260502192041 0 337 1.7 7.0 0.00 0.06 0.06 86 1010.7
20260502191037 0 326 1.7 4.3 0.00 0.06 0.06 86 1010.7
20260502190037 0 306 0.9 2.6 0.00 0.06 0.06 86 1010.6
20260502185036 0 338 0.9 3.5 0.00 0.06 0.06 86 1010.6
20260502184135 0 331 0.9 4.3 0.00 0.06 0.06 86 1010.6
20260502182033 0 338 1.7 4.3 0.00 0.06 0.06 86 1010.7
20260502181228 0 333 0.9 4.3 0.00 0.06 0.06 86 1010.7
20260502164047 0 284 2.6 4.3 0.00 0.06 0.06 86 1010.9
20260502163016 0 298 1.7 3.5 0.00 0.06 0.06 86 1011.1
20260502162045 0 277 3.5 4.3 0.00 0.06 0.06 86 1011.1
20260502161042 0 274 1.7 3.5 0.00 0.06 0.06 86 1011.2
20260502152037 0 284 1.7 3.5 0.00 0.06 0.06 86 1011.5
20260502151234 0 276 2.6 4.3 0.00 0.06 0.06 86 1011.6
20260502123046 0 161 0.9 3.5 0.00 0.06 0.06 86 1012.0
20260502122044 0 213 0.9 3.5 0.00 0.06 0.06 86 1012.1
20260502121043 0 176 0.9 3.5 0.00 0.06 0.06 86 1012.1
20260502115142 0 151 1.7 3.5 0.00 0.06 0.06 86 1012.1
20260502114141 0 122 1.7 4.3 0.00 0.06 0.06 86 1012.2
20260502113040 0 149 3.5 6.1 0.00 0.06 0.06 86 1012.1
20260502112036 0 132 2.6 7.0 0.00 0.06 0.06 86 1012.2
20260502111035 0 155 1.7 3.5 0.00 0.06 0.06 86 1012.2
20260502110035 0 137 2.6 6.1 0.00 0.06 0.06 86 1012.3
20260502105133 0 151 2.6 7.0 0.00 0.06 0.06 86 1012.3
20260502104029 0 169 1.7 6.1 0.00 0.06 0.06 86 1012.5
20260502103025 0 158 0.9 4.3 0.00 0.06 0.06 86 1012.5
20260502102050 0 123 0.9 3.5 0.00 0.06 0.06 86 1012.3
20260502101249 0 139 1.7 4.3 0.00 0.06 0.06 86 1012.3
20260502091044 0 206 0.9 2.6 0.00 0.06 0.06 86 1012.3
20260502071056 0 135 0.9 0.9 0.00 0.04 0.04 86 1012.1
20260502070052 0 136 1.7 3.5 0.00 0.04 0.04 86 1012.0
20260502065050 0 88 0.9 2.6 0.00 0.04 0.04 86 1011.9
20260502064119 0 68 0.0 2.6 0.00 0.04 0.04 86 1011.9
20260502063117 0 68 0.0 0.9 0.00 0.04 0.04 86 1012.0
20260502062046 0 68 0.9 0.9 0.00 0.04 0.04 86 1012.0
20260502061046 0 68 0.0 0.9 0.00 0.04 0.04 86 1012.3
20260502060045 0 0.0 0.0 0.00 0.04 0.04 86 1012.4
20260502055044 0 68 0.0 0.9 0.01 0.04 0.04 86 1012.5
20260502054413 0 68 0.0 0.9 0.02 0.04 0.04 86 1012.7
20260502053410 0 0.0 0.9 0.03 0.04 0.04 86 1012.5
20260502052209 0 68 0.9 2.6 0.03 0.04 0.04 86 1012.7
20260502051135 0 144 1.7 2.6 0.04 0.04 0.04 86 1012.8
20260502050029 0 149 0.9 0.9 0.04 0.05 0.04 86 1012.8
20260502045128 0 155 1.7 3.5 0.03 0.04 0.03 86 1012.9
20260502044227 0 234 1.7 4.3 0.02 0.03 0.02 86 1013.1
20260502043026 0 157 0.9 3.5 0.01 0.02 0.01 86 1013.0
20260502042025 0 187 1.7 4.3 0.01 0.02 0.01 86 1013.0
20260502041024 0 238 2.6 6.1 0.00 0.01 0.00 86 1013.2
20260502040023 0 221 2.6 6.1 0.00 0.01 0.00 86 1013.1
20260502035022 0 234 2.6 6.1 0.00 0.01 0.00 86 1013.1